Date String (YYYY-MM-DD hh:mm:ss) UTC,Instrument flags,Ambient pressure (hPa),Sample flow (lpm),Bypass flow (lpm),Sample temperature (°C),Ambient temperature (°C),ASC tube jacket temperature (°C),LED temperature (°C),Box temperature (°C),Sample RH (%),Span deviation,Mass concentration (μg/m³),Mass concentration (μg/m³),Mass concentration (μg/m³)
DateTimeUTC,F1_M11,P_M11,Q1_M11,Q2_M11,T1_M11,T2_M11,T3_M11,T4_M11,T5_M11,U1_M11,ZSPAN_M11,X2_M11,X0_M11,X1_M11
2023-05-24 22:00:00,,0829.3,5.00,0.00,29.3,28.0,00.0,37.6,31.0,25.1,0002.2,0005.07,0010.06,0004.65
2023-05-24 22:01:00,,0829.3,5.00,0.00,29.3,28.0,00.0,37.6,31.0,25.6,0002.4,0005.17,0010.21,0004.73
2023-05-24 22:02:00,,0829.3,5.00,0.00,29.3,28.0,00.0,37.6,31.0,25.8,0002.7,0005.27,0010.27,0004.81
2023-05-24 22:03:00,,0829.3,4.99,0.00,29.4,28.0,00.0,37.6,31.0,26.3,0003.0,0005.31,0010.40,0004.86
2023-05-24 22:04:00,,0829.3,5.00,0.00,29.4,28.0,00.0,37.6,31.0,26.2,0003.3,0005.38,0010.77,0004.92
2023-05-24 22:05:00,,0829.3,5.01,0.00,29.4,28.1,00.0,37.6,31.0,25.8,0003.4,0005.47,0010.92,0005.00
2023-05-24 22:06:00,,0829.3,5.00,0.00,29.4,28.1,00.0,37.7,31.1,24.2,0003.6,0005.52,0010.76,0005.05
2023-05-24 22:07:00,,0829.3,5.00,0.00,29.4,28.1,00.0,37.7,31.1,25.0,0003.6,0005.57,0010.49,0005.11
2023-05-24 22:08:00,,0829.4,5.00,0.00,29.4,28.1,00.0,37.7,31.1,24.7,0003.9,0005.66,0010.53,0005.19
2023-05-24 22:09:00,,0829.4,5.01,0.00,29.5,28.1,00.0,37.7,31.1,24.0,0003.9,0005.73,0009.98,0005.25
2023-05-24 22:10:00,,0829.5,5.00,0.00,29.5,28.1,00.0,37.7,31.1,25.0,0003.8,0005.77,0009.71,0005.30
2023-05-24 22:11:00,,0829.5,5.00,0.00,29.5,28.2,00.0,37.8,31.1,24.3,0003.8,0005.77,0009.77,0005.33
2023-05-24 22:12:00,,0829.6,5.01,0.00,29.5,28.2,00.0,37.8,31.2,25.2,0003.8,0005.76,0009.76,0005.34
2023-05-24 22:13:00,,0829.6,5.01,0.00,29.5,28.2,00.0,37.8,31.2,24.9,0003.7,0005.77,0009.77,0005.35
2023-05-24 22:14:00,,0829.6,5.00,0.00,29.5,28.2,00.0,37.8,31.2,25.4,0003.6,0005.80,0009.60,0005.38
2023-05-24 22:15:00,,0829.6,5.00,0.00,29.5,28.2,00.0,37.8,31.2,24.9,0003.5,0005.79,0009.30,0005.38
2023-05-24 22:16:00,,0829.6,5.00,0.00,29.6,28.2,00.0,37.8,31.2,25.4,0003.5,0005.80,0009.39,0005.38
2023-05-24 22:17:00,,0829.5,4.99,0.00,29.6,28.2,00.0,37.8,31.2,25.2,0003.4,0005.84,0009.58,0005.37
2023-05-24 22:18:00,,0829.5,4.99,0.00,29.6,27.9,00.0,37.8,31.2,25.3,0003.4,0005.85,0009.74,0005.36
2023-05-24 22:19:00,,0829.5,5.00,0.00,29.6,26.2,00.0,37.8,31.0,24.1,0003.3,0005.83,0009.68,0005.36
2023-05-24 22:20:00,,0829.4,5.00,0.00,29.5,25.4,00.0,37.7,30.9,25.0,0003.3,0005.84,0009.71,0005.37
2023-05-24 22:21:00,,0829.4,5.00,0.00,29.4,25.4,00.0,37.7,30.7,26.9,0003.3,0005.85,0009.69,0005.39
2023-05-24 22:22:00,,0829.4,5.01,0.00,29.3,25.7,00.0,37.7,30.7,27.0,0003.5,0005.89,0009.66,0005.43
2023-05-24 22:23:00,,0829.3,4.99,0.00,29.3,26.1,00.0,37.6,30.7,25.4,0003.4,0005.98,0009.72,0005.50
2023-05-24 22:24:00,,0829.3,5.00,0.00,29.3,26.4,00.0,37.6,30.8,22.5,0003.4,0006.04,0009.76,0005.57
2023-05-24 22:25:00,,0829.4,4.99,0.00,29.3,26.7,00.0,37.6,30.8,23.2,0003.5,0006.09,0009.81,0005.65
2023-05-24 22:26:00,,0829.4,4.99,0.00,29.3,26.9,00.0,37.6,30.8,22.4,0003.5,0006.18,0009.92,0005.74
2023-05-24 22:27:00,,0829.3,4.99,0.00,29.3,27.2,00.0,37.6,30.8,23.9,0003.3,0006.25,0009.96,0005.83
2023-05-24 22:28:00,,0829.3,5.00,0.00,29.3,27.3,00.0,37.6,30.9,26.4,0003.4,0006.32,0009.98,0005.92
2023-05-24 22:29:00,,0829.3,5.00,0.00,29.3,27.5,00.0,37.6,30.9,23.3,0003.5,0006.38,0009.80,0006.02
2023-05-24 22:30:00,,0829.3,5.00,0.00,29.3,27.6,00.0,37.6,30.9,22.8,0003.6,0006.47,0009.90,0006.12
2023-05-24 22:31:00,,0829.3,5.00,0.00,29.3,27.7,00.0,37.7,31.0,23.6,0003.8,0006.57,0010.00,0006.24
2023-05-24 22:32:00,,0829.4,5.00,0.00,29.3,27.8,00.0,37.7,31.0,23.8,0003.9,0006.69,0010.23,0006.34
2023-05-24 22:33:00,,0829.3,4.99,0.00,29.4,27.9,00.0,37.7,31.0,25.6,0004.0,0006.87,0010.56,0006.51
2023-05-24 22:34:00,,0829.3,5.00,0.00,29.4,27.9,00.0,37.7,31.0,25.1,0003.9,0007.05,0010.83,0006.70
2023-05-24 22:35:00,,0829.4,4.99,0.00,29.4,28.0,00.0,37.7,31.1,23.8,0003.7,0007.28,0011.13,0006.92
2023-05-24 22:36:00,,0829.3,5.00,0.00,29.4,28.0,00.0,37.7,31.1,24.1,0003.6,0007.55,0011.48,0007.15
2023-05-24 22:37:00,,0829.4,5.00,0.00,29.5,28.1,00.0,37.7,31.1,22.3,0003.5,0007.73,0011.71,0007.31
2023-05-24 22:38:00,,0829.4,5.00,0.00,29.5,28.1,00.0,37.7,31.1,24.5,0003.7,0007.96,0012.02,0007.50
2023-05-24 22:39:00,,0829.4,4.99,0.00,29.5,28.1,00.0,37.8,31.2,25.3,0003.6,0008.19,0012.33,0007.71
2023-05-24 22:40:00,,0829.4,5.01,0.00,29.5,28.2,00.0,37.8,31.2,24.0,0003.7,0008.32,0012.48,0007.85
2023-05-24 22:41:00,,0829.3,5.00,0.00,29.6,28.2,00.0,37.8,31.2,24.4,0003.5,0008.45,0012.64,0007.96
2023-05-24 22:42:00,,0829.3,5.00,0.00,29.6,28.2,00.0,37.8,31.2,24.6,0003.4,0008.63,0013.03,0008.12
2023-05-24 22:43:00,,0829.3,5.00,0.00,29.6,28.3,00.0,37.8,31.2,24.5,0003.4,0008.83,0013.91,0008.31
2023-05-24 22:44:00,,0829.3,5.01,0.00,29.6,28.3,00.0,37.8,31.3,24.1,0003.3,0008.89,0013.97,0008.37
2023-05-24 22:45:00,,0829.3,5.00,0.00,29.6,28.3,00.0,37.9,31.3,23.9,0003.3,0008.97,0014.06,0008.44
2023-05-24 22:46:00,,0829.3,5.00,0.00,29.7,28.3,00.0,37.9,31.3,23.4,0003.4,0009.03,0014.19,0008.48
2023-05-24 22:47:00,,0829.4,4.99,0.00,29.7,28.4,00.0,37.9,31.3,25.0,0003.4,0009.18,0014.87,0008.64
2023-05-24 22:48:00,,0829.4,5.00,0.00,29.7,28.4,00.0,37.9,31.4,26.0,0003.4,0009.38,0015.13,0008.85
2023-05-24 22:49:00,,0829.3,4.99,0.00,29.7,28.4,00.0,37.9,31.4,26.8,0003.2,0009.59,0015.69,0009.04
2023-05-24 22:50:00,,0829.3,5.00,0.00,29.7,27.1,00.0,37.9,31.3,26.9,0003.3,0009.98,0016.32,0009.41
2023-05-24 22:51:00,,0829.3,5.00,0.00,29.7,25.7,00.0,37.8,31.1,27.2,0003.1,0010.43,0016.93,0009.83
2023-05-24 22:52:00,,0829.3,5.01,0.00,29.6,25.5,00.0,37.7,30.9,27.5,0003.1,0010.89,0017.55,0010.26
2023-05-24 22:53:00,,0829.3,5.01,0.00,29.5,25.7,00.0,37.7,30.8,28.0,0003.0,0011.29,0018.11,0010.62
2023-05-24 22:54:00,,0829.3,5.00,0.00,29.4,26.0,00.0,37.7,30.8,27.2,0002.8,0011.66,0018.07,0010.93
2023-05-24 22:55:00,,0829.3,4.99,0.00,29.4,26.4,00.0,37.7,30.9,26.8,0002.8,0012.06,0018.77,0011.30
2023-05-24 22:56:00,,0829.3,5.00,0.00,29.4,26.7,00.0,37.7,30.9,27.2,0002.6,0012.35,0019.70,0011.58
2023-05-24 22:57:00,,0829.3,4.99,0.00,29.4,26.9,00.0,37.7,30.9,27.0,0002.6,0012.58,0020.03,0011.80
2023-05-24 22:58:00,,0829.3,5.00,0.00,29.4,27.2,00.0,37.7,31.0,26.0,0002.7,0012.57,0020.01,0011.80
2023-05-24 22:59:00,,0829.3,5.01,0.00,29.4,27.3,00.0,37.7,31.0,26.3,0002.7,0012.54,0019.98,0011.73
